This is the latest recevied weather packets stored in our database for station/object CE3TDM-10. If no packets are shown the sender has not sent any weather packets the latest 10 day(s).
| Time | Temp. | Humidity | Pressure | Rain* | Wind** | Luminosity | Snow |
|---|---|---|---|---|---|---|---|
| 1787933065 | 32.22° C | 37% | 920.8 hPa | - | - | - | - |
| 1787932164 | 31.67° C | 38% | 920.7 hPa | - | - | - | - |
| 1787930364 | 29.44° C | 42% | 920.7 hPa | - | - | - | - |
| 1787929464 | 27.78° C | 45% | 920.6 hPa | - | - | - | - |
| 1787928564 | 21.11° C | 49% | 920.7 hPa | - | - | - | - |
| 1787927664 | 15° C | 48% | 920.9 hPa | - | - | - | - |
| 1787924964 | 13.33° C | 49% | 920.9 hPa | - | - | - | - |
| 1787923164 | 12.22° C | 49% | 920.9 hPa | - | - | - | - |
| 1787921491 | 11.67° C | 49% | 920.8 hPa | - | - | - | - |
| 1787921368 | 11.67° C | 49% | 920.8 hPa | - | - | - | - |
| 1787919563 | 11.11° C | 49% | 920.6 hPa | - | - | - | - |
| 1787918663 | 10.56° C | 49% | 920.4 hPa | - | - | - | - |
| 1787917763 | 10.56° C | 49% | 920.2 hPa | - | - | - | - |
| 1787915966 | 10° C | 48% | 920.4 hPa | - | - | - | - |
| 1787915063 | 10° C | 48% | 920.3 hPa | - | - | - | - |
| 1787914163 | 10° C | 48% | 920.3 hPa | - | - | - | - |
| 1787912363 | 10° C | 48% | 920.2 hPa | - | - | - | - |
| 1787906062 | 11.67° C | 47% | 920.2 hPa | - | - | - | - |
| 1787905162 | 11.67° C | 46% | 920.1 hPa | - | - | - | - |
| 1787903364 | 11.67° C | 46% | 920 hPa | - | - | - | - |
| 1787902463 | 11.67° C | 46% | 920.2 hPa | - | - | - | - |
| 1787900662 | 12.22° C | 46% | 919.8 hPa | - | - | - | - |
| 1787895261 | 12.78° C | 44% | 919.7 hPa | - | - | - | - |
| 1787893463 | 12.78° C | 44% | 920 hPa | - | - | - | - |
| 1787891661 | 13.33° C | 43% | 919.7 hPa | - | - | - | - |
* Rain since midnight (hover to see other rain measurements)
** Current wind speed in m/s (hover to see current wind gust speed)